STARLINK-1628, 46169

Orbit data source: Space-Track

STARLINK-1628, 46169 is a payload satellite owned by SpaceX/Seattle (US) in LEO that was launched on Tue, 18 Aug 2020 UTC via an FALCON 9 launch vehicle from the Air Force Eastern Test Range (AFETR). Payload-class satellites include a variety of spacecraft equipped with specific instruments for various scientific and technological missions. These include communications satellites like Starlink; space stations such as the ISS; scientific satellites like the Hubble; Earth observation satellites from companies like Planet Labs, Umbra, and HawkEye 360; GPS; miniature CubeSats for education and research; and military/defense satellites.

Not visible in the next 10 days
Identifier
46169, 2020-057BE
Orbit
LEO
Country
Flag of USUS
Related business
Manufacturer
SpaceX/Seattle
Mission
Partially operational Commercial Communications
Bus & Motor
STARLINK, Unknown motor
Mass
260 kg wet, ~248 kg dry
Launch date (UTC)
2020-08-18 (5 years ago)
Launch vehicle
FALCON 9
Launch site
Air Force Eastern Test Range (AFETR)
Object type
Payload
Rocket body
Debris
Shape & HBR
Box + 1 Pan, 10.1 m
Radar Cross Section
13.562 m², Large (>1 m²)

Expand to show TLE details & history
Last TLE update: 17 hours ago

TLE from 17 hours ago
0 STARLINK-1628
1 46169U 20057BE  25287.33335648  .00395673  71009-4  11641-2 0  9998
2 46169  53.0327 145.3549 0006825 198.9621 142.4063 15.92126390  6000
Epoch: 2025-10-14T08:00Z
TLE epoch observation values (Epoch: 2025-10-14T08:00:01.999Z)
Latitude
-14.91695°
Longitude
-9.27697°
Altitude
303.958 km
Speed
7.724 km/s
True Right ascension
08h 55m 25s
True Declination
-14° 49' 33"
Sunlit
Object was in daylight at epoch
Visualization orbit readout
Latitude
Unknown
Longitude
Unknown
Altitude
Unknown
Speed
Unknown
Apparent Right ascension
Unknown
Apparent Declination
Unknown
Sunlit
N/A
Visualization observer readout
Local Sidereal Time
19:37:44
Azimuth
Unknown
Elevation
Unknown
Doppler factor
Unknown
Orbital elements
Apogee altitude
301.173 km
Perigee altitude
292.062 km
Semi-major axis
6,674.755 km
Eccentricity
0.00068
Inclination
53.0327°
RAAN
145.3549°
Arg. of periapsis
198.9621°
True anomaly
142.45398°
Mean anomaly
142.4063°
Eccentric anomaly
142.43014°
Mean motion
3.98007 °/min
Orbital period
90.45 mins
BSTAR
0.0011641
Loading maneuver chart data...
Computing Atmospheric mass density...
Loading historical data...
Loading historical data...
Loading historical data...
Loading historical data...
Loading historical data...
Loading historical data...
Loading historical data...

Documentation

Showing up to 5 results
|